Find Sunsat-OSCAR-35

NORAD ID: 25636 Int'l Des: 1999-008 Owner: STBO Country: ZA operational
LEORETROGRADE

Current View

Loading 3D Globe...

About Sunsat-OSCAR-35

Description loading...

Upcoming Passes

Passes for default location (London). Set your location on the main map for personalized predictions.

Altitude History

Loading altitude history...

Two-Line Element Set

1 25636U 99008C 26149.23723475 .00000328 00000-0 88120-4 0 9999
2 25636 96.4726 30.4686 0142673 29.0642 331.8402 14.46461352436494
Epoch: May 29, 2026 • Age: 22 hours

Current Status

Altitude 661.2 km
Velocity 7.58 km/s
Sub-Earth Point 58.33°N, 79.86°E
Launch Date Feb 23, 1999
Age 27.2 years
Type other

Technical Details

Classification Payload
Mass 60.00 kg
Dry Mass 60.00 kg
Total Mass 60.00 kg
Length 0.60 m
Diameter 0.50 m
Span 2.80 m
Shape Box + Ant
Manufacturer STBO
Bus Type Sunsat
Phase Status In Orbit
Owner/State STBO/ZA

Most Searched